706  
ASUS43 KIWX 230110  
RWRIWX  
 
KIWX WEATHER ROUNDUP  
NATIONAL WEATHER SERVICE NORTHERN INDIANA  
900 PM EDT SUN APR 22 2018  
 
NOTE: "FAIR" INDICATES FEW OR NO CLOUDS BELOW 12,000 FEET WITH NO  
SIGNIFICANT WEATHER AND/OR S TO VISIBILITY
.  
 
* THESE STATIONS ARE NOT UNDER NWS QUALITY CONTROL. THEY ALSO MAY NOT  
REPORT WEATHER SUCH AS PRECIPITATION OR FOG.
 
 
INZ001>027-230200-  
NORTHERN INDIANA  
 
CITY SKY/WX TMP DP RH WIND PRES REMARKS
 
GARY* MOCLDY 45 32 61 NE12 30.26R  
VALPARAISO FAIR 54 28 36 E10 30.24R  
MICHIGAN CITY* FAIR 43 34 70 N3 30.26R  
LAPORTE* FAIR 54 26 33 E10 30.26R  
KNOX* FAIR 55 27 33 E9 30.23S  
SOUTH BEND FAIR 55 20 25 E10 30.28R  
GOSHEN FAIR 52 24 33 E12 30.27R  
MONTICELLO* FAIR 58 28 31 E10 30.20S  
LOGANSPORT* FAIR 55 30 38 NE9 30.22S  
ROCHESTER* FAIR 57 25 28 NE8 30.24S  
WARSAW* FAIR 50 27 40 E9 30.26R  
AUBURN* FAIR 46 27 46 E7 30.28S  
FORT WAYNE MOCLDY 53 26 35 NE15 30.26S  
HUNTINGTON* FAIR 53 23 31 E10 30.24S  
PERU/GRISSOM MOCLDY 55 27 33 NE15 30.22R  
MARION* FAIR 56 28 34 NE12 30.22R  
 

 
INZ028>050-230200-  
CENTRAL INDIANA  
 
CITY SKY/WX TMP DP RH WIND PRES REMARKS
 
LAFAYETTE FAIR 58 32 37 NE10 30.18S  
KOKOMO* FAIR 54 32 43 NE12 30.22R  
MUNCIE* FAIR 57 32 38 NE8 30.21R  
INDIANAPOLIS CLOUDY 61 31 32 NE12 30.16R  
 

 
MIZ043>046-050>051-056>058-064>065-071>073-077>080-230200-  
SOUTHWEST LOWER MICHIGAN  
 
CITY SKY/WX TMP DP RH WIND PRES REMARKS
 
BATTLE CREEK FAIR 57 19 22 E5 30.29R  
BENTON HARBOR FAIR 47 32 56 CALM 30.27R  
COLDWATER* FAIR 52 24 33 SE9 30.30R  
HILLSDALE* FAIR 46 21 36 E7 30.30S  
HOLLAND FAIR 57 27 31 NE5 30.28R  
GRAND RAPIDS FAIR 54 30 40 E7 30.29R  
KALAMAZOO FAIR 56 21 25 E6 30.29R  
STURGIS* FAIR 53 23 31 SE7 30.28S  
THREE RIVERS* FAIR 56 23 28 SE5 30.29R  
 

 
OHZ001>008-015>018-024>025-230200-  
NORTHWEST OHIO  
 
CITY SKY/WX TMP DP RH WIND PRES REMARKS
 
WAUSEON* FAIR 48 23 37 E10G16 30.30R  
DEFIANCE FAIR 50 22 33 E9 30.29R  
FINDLAY FAIR 51 19 28 NE16 30.26S  
TOLEDO EXPRESS FAIR 49 21 33 E10 30.30S  
TOLEDO METCALF FAIR 46 25 43 E5 30.32R  
LIMA FAIR 50 26 39 NE9 30.25R  
 

 
AND FOR LAKE MICHIGAN COASTAL AND OPEN LAKE BUOY OBSERVATIONS  
 
STATION/POSITION TEMP WIND PRES VSBY WAVE
 
AIR SEA DIR/SP/G HT/PER  
(F) (DEG/KT/KT) (MB) (MI) (FT/S)  
CALUMET HARBOR 42 350/ 8/ 10 1024.3R  
MICHIGAN CITY 42 30/ 13/ 14 N/A  
BURNS HARBOR 43 60/ 10/ 12 1025.1R  
SAINT JOSEPH 46 20/ 8/ 10 1024.7  
 

 

 
 
 
CLICK HERE TO GO TO PREVIOUS BULLETINS.

The Nexlab IN Page
The Nexlab OH Page
The Nexlab MI Page Main Text Page